288  
ASUS44 KMEG 170410  
RWRMEG  
MEMPHIS CWA HOURLY WEATHER ROUNDUP  
NATIONAL WEATHER SERVICE MEMPHIS TN  
1000 PM CST SAT DEC 16 2017  
   
..WEST TENNESSEE
 
 
 
CITY SKY/WX TMP DP RH WIND PRES REMARKS
 
MEMPHIS INTL CLOUDY 48 31 51 SE6 30.19F  
NWS MEMPHIS N/A 47 N/A N/A MISG N/A  
JACKSON MOCLDY 46 31 55 S8 30.22R  
COVINGTON CLEAR 45 30 57 S6 30.19F  
SOMERVILLE MOCLDY 46 30 53 S7 30.18F  
BOLIVAR CLEAR 45 30 57 SE5 30.19F  
LEXINGTON CLEAR 43 30 61 S6 30.22S  
SELMER PTCLDY 45 30 57 S5 30.22S  
SAVANNAH CLEAR 36 32 87 CALM 30.23S  
DYERSBURG CLOUDY 44 30 57 CALM 30.20  
UNION CITY CLEAR 43 30 61 S9 30.19R  
PARIS PTCLDY 43 30 61 S8 30.19R  
HUNTINGDON CLEAR 46 30 53 S8 30.19S  
 
   
..EASTERN ARKANSAS
 
 
 
CITY SKY/WX TMP DP RH WIND PRES REMARKS
 
JONESBORO CLOUDY 45 34 65 S8 30.16F  
WEST MEMPHIS MOCLDY 45 34 65 S7 30.18S  
BATESVILLE CLOUDY 48 33 56 SE3 30.14F  
NEWPORT CLOUDY 46 35 65 S9 30.16F  
WALNUT RIDGE CLOUDY 45 33 63 S13 30.15F  
BLYTHEVILLE CLOUDY 46 33 60 S7 30.18F  
SEARCY LGT RAIN 48 39 71 S7 30.14F  
STUTTGART CLOUDY 46 40 79 SE7 30.14F  
PINE BLUFF CLOUDY 46 41 82 CALM 30.14F  
MONTICELLO CLOUDY 50 33 52 NE3 30.13F  
 
   
..NORTH MISSISSIPPI
 
 
 
CITY SKY/WX TMP DP RH WIND PRES REMARKS
 
TUPELO PTCLDY 40 28 62 CALM 30.23F  
BATESVILLE CLOUDY 40 32 74 CALM 30.20F  
TUNICA N/A N/A N/A N/A SE6 30.19F  
CLARKSDALE CLOUDY 46 36 66 SE6 30.18F  
CORINTH PTCLDY 36 30 80 CALM 30.22F  
GREENWOOD MOCLDY 47 30 51 SE7 30.19F  
COLUMBUS CLOUDY 34 31 88 E5 30.22F WCI 30  
STARKVILLE PTCLDY 37 30 75 S5 30.24S WCI 34  
GOLDEN TRIANGL PTCLDY 42 28 57 SE6 30.23F  
 
   
..SOUTHEAST MISSOURI
 
 
 
CITY SKY/WX TMP DP RH WIND PRES REMARKS
 
KENNETT N/A 45 34 65 S6 30.15F  
MALDEN CLOUDY 43 34 70 S8 30.16F  
WEST PLAINS CLOUDY 46 28 49 S9 30.10R  
POPLAR BLUFF PTCLDY 43 32 65 S6 30.14F  
CAPE GIRARDEAU PTCLDY 43 31 62 S10 30.15R  
 
   
..NORTHWEST ALABAMA
 
 
 
CITY SKY/WX TMP DP RH WIND PRES REMARKS
 
MUSCLE SHOALS CLOUDY 38 27 64 SE3 30.27R  
 
   
..MIDDLE TENNESSEE
 
 
 
CITY SKY/WX TMP DP RH WIND PRES REMARKS
 
NASHVILLE CLOUDY 42 30 62 SE5 30.23S  
CLARKSVILLE CLOUDY 42 27 55 S3 30.20R  
COLUMBIA CLEAR 43 28 56 S7 30.22S  
 
   
..WESTERN KENTUCKY
 
 
 
CITY SKY/WX TMP DP RH WIND PRES REMARKS
 
PADUCAH CLOUDY 45 29 53 S5 30.16R  
FORT CAMPBELL CLOUDY 44 28 53 S6 30.19S  
 
   
..CENTRAL ARKANSAS
 
 
 
CITY SKY/WX TMP DP RH WIND PRES REMARKS
 
LITTLE ROCK CLOUDY 46 41 82 SE5 30.12F  
 
SKY/WX REPORTED AS FAIR MEANS FEW OR NO CLOUDS BELOW  
12 THOUSAND FEET.  
 
 
 
CLICK HERE TO GO TO PREVIOUS BULLETINS.

The Nexlab TN Page
The Nexlab MS Page
The Nexlab AR Page Main Text Page